FW0527 Weather Reports


time (UTC)temp
C
wind
direction
speed
KPH
gust
KPH
rain 1hr
cm
rain 24hr
cm
rain mn
cm
humidity
%
barometer
mb
20260831144520 15 196 0.0 0.0 0.00 0.00 0.00 33 1011.4
20260831143018 14 196 0.0 0.0 0.00 0.00 0.00 34 1011.1
20260831141517 13 196 0.0 0.0 0.00 0.00 0.00 34 1010.8
20260831140016 13 196 0.0 0.0 0.00 0.00 0.00 34 1010.7
20260831134516 13 196 0.0 0.0 0.00 0.00 0.00 34 1010.4
20260831133027 13 196 0.0 0.0 0.00 0.00 0.00 36 1010.2
20260831131517 13 196 0.0 0.0 0.00 0.00 0.00 34 1010.2
20260831130013 13 196 0.0 0.0 0.00 0.00 0.00 34 1010.2
20260831124513 13 196 0.0 0.0 0.00 0.00 0.00 34 1009.9
20260831123015 13 196 0.0 0.0 0.00 0.00 0.00 34 1010.0
20260831121507 13 196 0.0 0.0 0.00 0.00 0.00 35 1009.9
20260831120008 13 196 0.0 0.0 0.00 0.00 0.00 34 1010.0
20260831114504 13 196 0.0 0.0 0.00 0.00 0.00 34 1010.0
20260831113002 13 196 0.0 0.0 0.00 0.00 0.00 34 1010.2
20260831111600 14 196 0.0 0.0 0.00 0.00 0.00 32 1010.1
20260831104610 14 196 0.0 0.0 0.00 0.00 0.00 33 1010.0
20260831103055 14 196 0.0 0.0 0.00 0.00 0.00 33 1010.1
20260831101553 14 196 0.0 0.0 0.00 0.00 0.00 34 1010.2
20260831100103 15 196 0.0 0.0 0.00 0.00 0.00 35 1010.2
20260831094550 15 196 0.0 0.0 0.00 0.00 0.00 34 1010.4
20260831093050 15 196 0.0 0.0 0.00 0.00 0.00 33 1010.4
20260831091547 15 196 0.0 0.0 0.00 0.00 0.00 34 1010.4
20260831090045 15 196 0.0 0.0 0.00 0.00 0.00 36 1010.5
20260831084545 15 196 0.0 0.0 0.00 0.00 0.00 39 1010.5
20260831083045 15 196 0.0 0.0 0.00 0.00 0.00 37 1010.5
20260831081543 15 196 0.0 0.0 0.00 0.00 0.00 36 1010.5
20260831080052 15 196 0.0 0.0 0.00 0.00 0.00 37 1010.5
20260831074536 15 196 0.0 0.0 0.00 0.00 0.00 33 1010.6
20260831073035 15 262 0.0 0.0 0.00 0.00 0.00 33 1010.6
20260831071530 16 262 0.0 0.0 0.00 0.00 0.00 34 1010.7
20260831070030 16 262 0.0 0.0 0.00 0.00 0.00 38 1010.7
20260831064528 16 262 0.0 0.0 0.00 0.00 0.00 40 1010.8
20260831063026 16 262 0.0 0.0 0.00 0.00 0.00 45 1010.9
20260831061525 16 262 0.0 0.0 0.00 0.00 0.00 46 1010.6
20260831060024 16 300 0.0 0.0 0.00 0.00 0.00 46 1010.7
20260831054524 16 299 0.0 0.0 0.00 0.00 0.00 44 1010.4
20260831053023 17 299 0.0 0.0 0.00 0.00 0.00 44 1010.5
20260831051523 17 299 0.0 0.0 0.00 0.00 0.00 44 1010.5
20260831050022 17 299 0.0 0.0 0.00 0.00 0.00 44 1010.6
20260831044522 18 299 0.0 0.0 0.00 0.00 0.00 44 1010.4
20260831043020 18 299 0.0 0.0 0.00 0.00 0.00 44 1010.2
20260831041522 19 299 0.0 0.0 0.00 0.00 0.00 43 1010.4
20260831040024 20 299 0.0 0.0 0.00 0.00 0.00 43 1010.2
20260831034522 20 299 0.0 0.0 0.00 0.00 0.00 42 1010.2
20260831033019 21 299 0.0 0.0 0.00 0.00 0.00 42 1009.9
20260831031523 21 299 0.0 0.0 0.00 0.00 0.00 41 1009.7
20260831030018 22 299 0.0 0.0 0.00 0.00 0.00 39 1009.7
20260831024519 23 299 0.0 0.0 0.00 0.00 0.00 37 1009.6
20260831023016 24 299 0.0 0.0 0.00 0.00 0.00 34 1009.7
20260831021528 25 299 0.0 0.0 0.00 0.00 0.00 33 1009.6
20260831020016 25 295 0.0 0.0 0.00 0.00 0.00 32 1009.5
20260831014515 25 304 0.0 0.0 0.00 0.00 0.00 30 1009.6
20260831013023 26 301 0.0 0.0 0.00 0.00 0.00 30 1009.5
20260831011515 26 323 0.0 1.6 0.00 0.00 0.00 29 1009.6
20260831010016 27 302 0.0 1.6 0.00 0.00 0.00 27 1009.5
20260831004514 27 230 0.0 19.3 0.00 0.00 0.00 26 1009.6
20260831003012 27 271 0.0 16.1 0.00 0.00 0.00 25 1009.5
20260831001510 28 241 1.6 12.9 0.00 0.00 0.00 26 1009.5
20260831000017 28 281 0.0 17.7 0.00 0.00 0.00 26 1009.4
20260830234508 28 284 1.6 16.1 0.00 0.00 0.00 26 1009.3
20260830233011 29 313 0.0 17.7 0.00 0.00 0.00 27 1009.6
20260830231505 29 323 0.0 16.1 0.00 0.00 0.00 28 1009.6
20260830230004 30 165 0.0 3.2 0.00 0.00 0.00 28 1009.5
20260830224503 30 316 1.6 17.7 0.00 0.00 0.00 28 1009.6
20260830223000 30 291 3.2 16.1 0.00 0.00 0.00 28 1009.6
20260830221609 31 275 1.6 17.7 0.00 0.00 0.00 28 1009.6
20260830214602 32 270 0.0 20.9 0.00 0.00 0.00 25 1009.7
20260830213055 32 277 0.0 17.7 0.00 0.00 0.00 24 1010.0
20260830211654 33 13 0.0 17.7 0.00 0.00 0.00 24 1010.1
20260830210059 33 262 0.0 20.9 0.00 0.00 0.00 25 1010.2
20260830204553 33 288 1.6 17.7 0.00 0.00 0.00 25 1010.5
20260830203048 33 329 1.6 20.9 0.00 0.00 0.00 25 1010.6
20260830201545 33 292 0.0 14.5 0.00 0.00 0.00 25 1010.5
20260830200042 33 293 0.0 19.3 0.00 0.00 0.00 25 1010.7
20260830194541 33 345 1.6 14.5 0.00 0.00 0.00 25 1010.6
20260830193036 33 290 1.6 22.5 0.00 0.00 0.00 25 1010.7
20260830191533 32 292 1.6 17.7 0.00 0.00 0.00 24 1010.8
20260830190032 32 326 0.0 24.1 0.00 0.00 0.00 23 1010.8
20260830184529 32 318 0.0 19.3 0.00 0.00 0.00 23 1011.0
20260830183027 32 261 0.0 14.5 0.00 0.00 0.00 23 1011.0
20260830181524 32 321 1.6 16.1 0.00 0.00 0.00 23 1011.2
20260830180022 32 321 3.2 17.7 0.00 0.00 0.00 24 1011.1
20260830174519 31 275 1.6 17.7 0.00 0.00 0.00 25 1011.0
20260830173015 31 309 4.8 17.7 0.00 0.00 0.00 24 1010.9
20260830171511 30 302 0.0 4.8 0.00 0.00 0.00 25 1010.8
20260830170008 30 293 0.0 9.7 0.00 0.00 0.00 26 1010.8
20260830164503 28 355 0.0 0.0 0.00 0.00 0.00 28 1010.7
20260830163100 28 311 0.0 1.6 0.00 0.00 0.00 31 1010.7
20260830161609 27 303 0.0 17.7 0.00 0.00 0.00 32 1010.8
20260830160051 25 308 0.0 0.0 0.00 0.00 0.00 36 1010.8
20260830154546 23 290 0.0 12.9 0.00 0.00 0.00 41 1010.7
20260830153041 21 118 0.0 0.0 0.00 0.00 0.00 51 1010.9
20260830151541 19 118 0.0 0.0 0.00 0.00 0.00 56 1010.8
20260830150033 18 117 0.0 0.0 0.00 0.00 0.00 60 1010.7